A/2021 F1

Japanese version
Home page
Updated on May 4, 2021

---------------------------------------------------------------------

* Profile

Discovery Date March 19, 2021
Magnitude 21.81 mag
Discoverer Pan-STARRS 1 telescope (Haleakala)

* Orbital Elements

Epoch 2022 Apr. 11.0 TT = JDT 2459680.5
T 2022 Apr. 6.83955 TT                                  Rudenko
q   0.9952098            (2000.0)            P               Q
z  +0.0042123      Peri.  146.82882     +0.70310293     +0.60110690
 +/-0.0000493      Node   203.44880     +0.23491238     +0.30789470
e   0.9958079      Incl.  107.31791     +0.67116499     -0.73747634
H   17.5
From 97 observations 2021 Mar. 19-Apr. 30, mean residual 0".3.

* Finding Charts

* Magnitudes Graph

        H = 14.0  G = 0.15

---------------------------------------------------------------------

The orbital elements are published on M.P.E.C. 2021-J28.
The charts are made with StellaNavigator Ver.10 (AstroArts).
The magnitudes graphs are made with Comet for Windows.

---------------------------------------------------------------------

Copyright(C) Seiichi Yoshida (comet@aerith.net). All rights reserved.